{"data":{"norad_id":44865,"intl_designator":"2019-090B","name":"BEIDOU-3 M20 (C42)","alt_names":[],"object_type":"PAYLOAD","status":"ACTIVE","operator":null,"country":"PRC","launch_date":"2019-12-16","launch_site_code":"XICLF","launch_vehicle":null,"mission":null,"orbit_class":"UNKNOWN","rcs_meters":null,"size_class":null,"mass_kg":null,"dimensions":null,"purposes":["nav"],"wikipedia_slug":null,"has_3d_model":false,"image_url":null,"decayed_at":null,"tle_current":{"epoch":"2026-09-19T20:17:19.222368Z","epoch_age_seconds":70952,"freshness":"FRESH","line1":"1 44865U 19090B   26262.84536137 -.00000009  00000+0  00000+0 0  9999","line2":"2 44865  56.6486  59.7016 0012975 307.5103  59.3559  1.86231559 45987","mean_motion":1.86231559,"eccentricity":0.0012975,"inclination_deg":56.6486,"raan_deg":59.7016,"arg_perigee_deg":307.5103,"mean_anomaly_deg":59.3559,"bstar":0,"rev_number":4598,"period_min":773.23092161839,"perigee_km":21491.787513773,"apogee_km":21564.203928184,"semimajor_km":27906.132720979,"source":"CELESTRAK","updated_at":"2026-09-20T09:00:46.714332Z"}}}